This is the latest recevied weather packets stored in our database for station/object NN5DX-12. If no packets are shown the sender has not sent any weather packets the latest 10 day(s).
| Time | Temp. | Humidity | Pressure | Rain* | Wind** | Luminosity | Snow |
|---|---|---|---|---|---|---|---|
| 1777497017 | 4.44° C | 76% | 1018.7 hPa | 0 mm | - | - | - |
| 1777496717 | 4.44° C | 78% | 1018.6 hPa | 0 mm | - | - | - |
| 1777496417 | 4.44° C | 78% | 1018.6 hPa | 0 mm | - | - | - |
| 1777496117 | 4.44° C | 77% | 1018.7 hPa | 0 mm | - | - | - |
| 1777495817 | 4.44° C | 79% | 1018.7 hPa | 0 mm | - | - | - |
| 1777495517 | 4.44° C | 84% | 1018.3 hPa | 0 mm | - | - | - |
| 1777495217 | 3.89° C | 81% | 1018.4 hPa | 0.25 mm | - | - | - |
| 1777494917 | 4.44° C | 78% | 1018.5 hPa | 0.51 mm | - | - | - |
| 1777494617 | 4.44° C | 77% | 1018.4 hPa | 0.51 mm | - | - | - |
| 1777494316 | 4.44° C | 74% | 1018.3 hPa | 0.51 mm | - | - | - |
| 1777494016 | 5° C | 75% | 1019.1 hPa | 0.51 mm | - | - | - |
| 1777493717 | 5° C | 74% | 1019.7 hPa | 0.51 mm | - | - | - |
| 1777493417 | 5° C | 77% | 1019.8 hPa | 0.51 mm | - | - | - |
| 1777493116 | 5° C | 74% | 1019.7 hPa | 0.51 mm | - | - | - |
| 1777492816 | 5° C | 77% | 1019.7 hPa | 0.51 mm | - | - | - |
| 1777492517 | 5° C | 76% | 1019.6 hPa | 0.51 mm | - | - | - |
| 1777492217 | 4.44° C | 78% | 1019 hPa | 0.51 mm | - | - | - |
| 1777491916 | 5° C | 79% | 1019.9 hPa | 0.51 mm | - | - | - |
| 1777491617 | 4.44° C | 82% | 1019.7 hPa | 0.25 mm | - | - | - |
| 1777491317 | 3.89° C | 83% | 1019.2 hPa | 0 mm | - | - | - |
| 1777491017 | 3.89° C | 81% | 1019.1 hPa | 0 mm | - | - | - |
| 1777490717 | 3.89° C | 79% | 1019.3 hPa | 0 mm | - | - | - |
| 1777490417 | 3.89° C | 76% | 1019.3 hPa | 0 mm | - | - | - |
| 1777490116 | 3.89° C | 74% | 1019.8 hPa | 0 mm | - | - | - |
| 1777489817 | 3.89° C | 73% | 1019.7 hPa | 0 mm | - | - | - |
* Rain latest hour (hover to see other rain measurements)
** Current wind speed in m/s (hover to see current wind gust speed)